When you browse on this site, cookies collect data to enhance your experience and personalize the content and advertising you see.
Visit our Privacy Policy to learn more. By continuing to use the site, you agree to this use of cookies and data.
  • In Sweden
  • List of Countries
  • For 7 days
  • Water Temperature
  • Weather Map
  • Weather Widgets
  • user-avatar
    Login

    Hourly Weather Darwen

    Today, 21 August, Wednesday

    Time Temperature Precipitation Wind Pressure Humidity
    00:00 +12°C° 0 mm 3 mps 749 mmHg 91%
    01:00 +12°C° 0.2 mm 3 mps 749 mmHg 92%
    02:00 +12°C° 0.2 mm 3 mps 749 mmHg 92%
    03:00 +12°C° 0.2 mm 3 mps 749 mmHg 93%
    04:00 +12°C° 0.1 mm 3 mps 749 mmHg 92%
    05:00 +12°C° 0.1 mm 3 mps 749 mmHg 92%
    06:00 +12°C° 0.1 mm 3 mps 749 mmHg 92%
    07:00 +13°C° 0 mm 3 mps 749 mmHg 87%
    08:00 +14°C° 0 mm 4 mps 749 mmHg 83%
    09:00 +15°C° 0 mm 4 mps 749 mmHg 78%
    10:00 +16°C° 0.1 mm 5 mps 749 mmHg 73%
    11:00 +17°C° 0.1 mm 5 mps 749 mmHg 69%
    12:00 +19°C° 0.1 mm 5 mps 749 mmHg 64%
    13:00 +19°C° 0.2 mm 5 mps 748 mmHg 65%
    14:00 +19°C° 0.2 mm 6 mps 748 mmHg 67%
    15:00 +19°C° 0.2 mm 6 mps 748 mmHg 68%
    16:00 +17°C° 0.2 mm 6 mps 747 mmHg 70%
    17:00 +16°C° 0.2 mm 5 mps 747 mmHg 73%
    18:00 +15°C° 0.2 mm 5 mps 747 mmHg 75%
    19:00 +15°C° 0.1 mm 5 mps 747 mmHg 77%
    20:00 +14°C° 0.1 mm 5 mps 747 mmHg 78%
    21:00 +14°C° 0.1 mm 5 mps 747 mmHg 79%
    22:00 +13°C° 0.4 mm 5 mps 747 mmHg 82%
    23:00 +13°C° 0.4 mm 5 mps 746 mmHg 84%

    Tomorrow, 22 August, Thursday

    Time Temperature Precipitation Wind Pressure Humidity
    00:00 +13°C° 0.4 mm 5 mps 746 mmHg 86%
    01:00 +13°C° 1.1 mm 5 mps 746 mmHg 87%
    02:00 +13°C° 1.1 mm 6 mps 746 mmHg 88%
    03:00 +13°C° 1.1 mm 6 mps 746 mmHg 89%
    04:00 +14°C° 0.5 mm 6 mps 746 mmHg 90%
    05:00 +14°C° 0.5 mm 5 mps 746 mmHg 91%
    06:00 +14°C° 0.5 mm 5 mps 746 mmHg 92%
    07:00 +14°C° 0.4 mm 6 mps 746 mmHg 90%
    08:00 +15°C° 0.4 mm 6 mps 747 mmHg 87%
    09:00 +15°C° 0.4 mm 6 mps 747 mmHg 85%
    10:00 +16°C° 0.2 mm 6 mps 747 mmHg 82%
    11:00 +17°C° 0.2 mm 5 mps 747 mmHg 78%
    12:00 +17°C° 0.2 mm 5 mps 747 mmHg 75%
    13:00 +19°C° 0.2 mm 5 mps 747 mmHg 74%
    14:00 +19°C° 0.2 mm 6 mps 747 mmHg 74%
    15:00 +19°C° 0.2 mm 6 mps 747 mmHg 74%
    16:00 +19°C° 0 mm 6 mps 747 mmHg 75%
    17:00 +17°C° 0 mm 5 mps 747 mmHg 77%
    18:00 +17°C° 0 mm 5 mps 747 mmHg 79%
    19:00 +16°C° 0 mm 5 mps 747 mmHg 80%
    20:00 +17°C° 0 mm 4 mps 747 mmHg 82%
    21:00 +15°C° 0 mm 4 mps 748 mmHg 83%
    22:00 +15°C° 0 mm 4 mps 748 mmHg 85%
    23:00 +16°C° 0 mm 3 mps 748 mmHg 86%

    Day after tomorrow, 23 August, Friday

    Time Temperature Precipitation Wind Pressure Humidity
    00:00 +14°C° 0 mm 3 mps 748 mmHg 88%
    01:00 +14°C° 0 mm 3 mps 748 mmHg 89%
    02:00 +14°C° 0 mm 3 mps 748 mmHg 91%
    03:00 +14°C° 0 mm 3 mps 747 mmHg 92%
    04:00 +14°C° 0 mm 3 mps 748 mmHg 92%
    05:00 +14°C° 0 mm 3 mps 748 mmHg 92%
    06:00 +14°C° 0 mm 3 mps 748 mmHg 93%
    07:00 +16°C° 0 mm 3 mps 748 mmHg 88%
    08:00 +17°C° 0 mm 3 mps 748 mmHg 84%
    09:00 +18°C° 0 mm 4 mps 748 mmHg 80%
    10:00 +19°C° 0 mm 3 mps 748 mmHg 77%
    11:00 +20°C° 0 mm 3 mps 748 mmHg 74%
    12:00 +21°C° 0 mm 3 mps 748 mmHg 71%
    13:00 +21°C° 0 mm 3 mps 748 mmHg 70%
    14:00 +21°C° 0 mm 3 mps 748 mmHg 70%
    15:00 +23°C° 0 mm 2 mps 748 mmHg 69%
    16:00 +21°C° 0 mm 2 mps 748 mmHg 72%
    17:00 +20°C° 0 mm 2 mps 747 mmHg 76%
    18:00 +21°C° 0 mm 1 mps 747 mmHg 80%
    19:00 +20°C° 0 mm 1 mps 747 mmHg 82%
    20:00 +19°C° 0 mm 1 mps 748 mmHg 84%
    21:00 +18°C° 0 mm 1 mps 748 mmHg 86%
    22:00 +18°C° 0 mm 1 mps 748 mmHg 86%
    23:00 +16°C° 0 mm 1 mps 747 mmHg 87%

    24 August, Saturday

    Time Temperature Precipitation Wind Pressure Humidity
    00:00 +16°C° 0 mm 1 mps 747 mmHg 87%
    01:00 +16°C° 0 mm 1 mps 747 mmHg 88%
    02:00 +15°C° 0 mm 1 mps 747 mmHg 88%
    03:00 +15°C° 0 mm 1 mps 747 mmHg 88%
    04:00 +15°C° 0 mm 1 mps 747 mmHg 88%
    05:00 +15°C° 0 mm 1 mps 746 mmHg 88%
    06:00 +16°C° 0 mm 1 mps 746 mmHg 88%
    07:00 +17°C° 0 mm 2 mps 746 mmHg 83%
    08:00 +18°C° 0 mm 2 mps 746 mmHg 79%
    09:00 +20°C° 0 mm 3 mps 746 mmHg 74%
    10:00 +21°C° 0 mm 3 mps 746 mmHg 68%
    11:00 +22°C° 0 mm 4 mps 746 mmHg 62%
    12:00 +23°C° 0 mm 4 mps 746 mmHg 56%
    13:00 +23°C° 0 mm 4 mps 745 mmHg 54%
    14:00 +23°C° 0 mm 4 mps 745 mmHg 52%
    15:00 +24°C° 0 mm 3 mps 745 mmHg 51%
    16:00 +22°C° 0 mm 3 mps 745 mmHg 55%
    17:00 +22°C° 0 mm 3 mps 744 mmHg 60%
    18:00 +21°C° 0 mm 2 mps 744 mmHg 64%
    19:00 +20°C° 0 mm 2 mps 744 mmHg 66%
    20:00 +19°C° 0 mm 2 mps 744 mmHg 68%
    21:00 +18°C° 0 mm 2 mps 744 mmHg 70%
    22:00 +18°C° 0 mm 2 mps 744 mmHg 72%
    23:00 +18°C° 0 mm 2 mps 744 mmHg 74%

    25 August, Sunday

    Time Temperature Precipitation Wind Pressure Humidity
    00:00 +18°C° 0 mm 2 mps 744 mmHg 77%
    01:00 +17°C° 0 mm 2 mps 744 mmHg 78%
    02:00 +17°C° 0 mm 2 mps 743 mmHg 79%
    03:00 +17°C° 0 mm 2 mps 743 mmHg 81%
    04:00 +17°C° 0 mm 2 mps 743 mmHg 81%
    05:00 +17°C° 0 mm 2 mps 743 mmHg 81%
    06:00 +17°C° 0 mm 2 mps 742 mmHg 81%
    07:00 +18°C° 0 mm 2 mps 742 mmHg 78%
    08:00 +19°C° 0 mm 2 mps 742 mmHg 75%
    09:00 +20°C° 0 mm 3 mps 742 mmHg 72%
    10:00 +21°C° 0 mm 3 mps 742 mmHg 68%
    11:00 +23°C° 0 mm 4 mps 742 mmHg 64%
    12:00 +25°C° 0 mm 4 mps 742 mmHg 59%
    13:00 +25°C° 0 mm 4 mps 741 mmHg 61%
    14:00 +25°C° 0 mm 4 mps 741 mmHg 63%
    15:00 +26°C° 0 mm 3 mps 741 mmHg 65%
    16:00 +25°C° 0.1 mm 3 mps 741 mmHg 67%
    17:00 +24°C° 0.1 mm 3 mps 740 mmHg 70%
    18:00 +23°C° 0.1 mm 2 mps 740 mmHg 73%
    19:00 +20°C° 0 mm 2 mps 740 mmHg 78%
    20:00 +19°C° 0 mm 2 mps 740 mmHg 82%
    21:00 +17°C° 0 mm 2 mps 740 mmHg 87%
    22:00 +17°C° 0 mm 2 mps 740 mmHg 88%
    23:00 +16°C° 0 mm 2 mps 740 mmHg 88%

    26 August, Monday

    Time Temperature Precipitation Wind Pressure Humidity
    00:00 +16°C° 0 mm 3 mps 740 mmHg 89%
    01:00 +16°C° 0 mm 3 mps 740 mmHg 89%
    02:00 +16°C° 0 mm 3 mps 740 mmHg 88%
    03:00 +15°C° 0 mm 4 mps 740 mmHg 87%
    04:00 +14°C° 0.5 mm 3 mps 740 mmHg 89%
    05:00 +13°C° 0.5 mm 3 mps 740 mmHg 90%
    06:00 +14°C° 0.5 mm 2 mps 740 mmHg 92%
    07:00 +13°C° 0.1 mm 3 mps 740 mmHg 91%
    08:00 +13°C° 0.1 mm 3 mps 740 mmHg 89%
    09:00 +14°C° 0.1 mm 4 mps 740 mmHg 88%
    10:00 +14°C° 0.2 mm 4 mps 741 mmHg 88%
    11:00 +14°C° 0.2 mm 5 mps 741 mmHg 89%
    12:00 +15°C° 0.2 mm 6 mps 741 mmHg 89%
    13:00 +15°C° 0.1 mm 6 mps 741 mmHg 83%
    14:00 +15°C° 0.1 mm 6 mps 742 mmHg 77%
    15:00 +15°C° 0.1 mm 7 mps 742 mmHg 72%
    16:00 +15°C° 0 mm 6 mps 743 mmHg 72%
    17:00 +14°C° 0 mm 6 mps 743 mmHg 73%
    18:00 +14°C° 0 mm 5 mps 744 mmHg 74%
    19:00 +13°C° 0 mm 5 mps 744 mmHg 74%
    20:00 +12°C° 0 mm 4 mps 745 mmHg 75%
    21:00 +12°C° 0 mm 4 mps 746 mmHg 76%
    22:00 +12°C° 0 mm 4 mps 746 mmHg 76%
    23:00 +12°C° 0 mm 4 mps 746 mmHg 77%
    Show more